Private Wetterstation Wechselburg
Wetterdaten: Montag, 27.02.2012
Datum Zeit Temp. +2m Bodentemp. Temp.+5cm Temp. Wind Windchill X Diff Temp. Feuchte +2m Feuchte +5cm Sonnenschein Luftdruck Regen Wind Richtung Richtung Sonnenschein UV Taupunkt Windchill Windben
27.02.2012 00:00 -2,5 C 6,6 C -2,4 C -3,0 C -4,0 C 0,0 C 86 % 87 % 0 % 1028,2 hPa 0,0 l/m 0,0 km/h (0 Bft) SO 135 0 min 0,0 UV-I -4,5 C -4,0 C 0,0 km/h (0 Bft)
27.02.2012 00:08 -2,5 C 6,6 C -2,5 C -3,0 C -4,0 C 0,0 C 86 % 88 % 0 % 1028,2 hPa 0,0 l/m 0,0 km/h (0 Bft) N 0 0 min 0,0 UV-I -4,5 C -4,0 C 0,0 km/h (0 Bft)
27.02.2012 00:25 -2,7 C 6,6 C -2,5 C -3,2 C -4,2 C 0,0 C 86 % 88 % 0 % 1027,9 hPa 0,0 l/m 0,0 km/h (0 Bft) SO 135 0 min 0,0 UV-I -4,7 C -4,2 C 0,0 km/h (0 Bft)
27.02.2012 00:30 -2,7 C 6,6 C -2,5 C -3,2 C -4,2 C 0,0 C 86 % 88 % 0 % 1027,9 hPa 0,0 l/m 0,0 km/h (0 Bft) SO 135 0 min 0,0 UV-I -4,7 C -4,2 C 0,0 km/h (0 Bft)
27.02.2012 00:35 -2,8 C 6,5 C -2,5 C -3,3 C -4,2 C 0,0 C 86 % 88 % 0 % 1027,6 hPa 0,0 l/m 0,0 km/h (0 Bft) SO 135 0 min 0,0 UV-I -4,8 C -4,2 C 0,0 km/h (0 Bft)
27.02.2012 00:40 -2,7 C 6,5 C -2,5 C -3,2 C -4,2 C 0,0 C 86 % 88 % 0 % 1027,6 hPa 0,0 l/m 0,0 km/h (0 Bft) SO 135 0 min 0,0 UV-I -4,7 C -4,2 C 0,0 km/h (0 Bft)
27.02.2012 00:45 -2,7 C 6,5 C -2,5 C -3,2 C -4,2 C 0,0 C 86 % 88 % 0 % 1027,6 hPa 0,0 l/m 0,0 km/h (0 Bft) SO 135 0 min 0,0 UV-I -4,7 C -4,2 C 0,0 km/h (0 Bft)
27.02.2012 00:50 -2,7 C 6,5 C -2,5 C -3,2 C -4,3 C 0,0 C 86 % 88 % 0 % 1027,6 hPa 0,0 l/m 0,0 km/h (0 Bft) SO 135 0 min 0,0 UV-I -4,7 C -4,3 C 0,0 km/h (0 Bft)
27.02.2012 00:55 -2,7 C 6,5 C -2,4 C -3,2 C -4,2 C 0,0 C 86 % 88 % 0 % 1027,6 hPa 0,0 l/m 0,2 km/h (0 Bft) SO 135 0 min 0,0 UV-I -4,7 C -4,2 C 0,0 km/h (0 Bft)
27.02.2012 01:00 -2,7 C 6,5 C -2,5 C -3,2 C -4,1 C 0,0 C 86 % 88 % 0 % 1027,6 hPa 0,0 l/m 0,2 km/h (0 Bft) SO 135 0 min 0,0 UV-I -4,7 C -4,1 C 0,0 km/h (0 Bft)
27.02.2012 01:15 -2,7 C 6,5 C -2,5 C -3,2 C -4,3 C 0,0 C 86 % 88 % 0 % 1027,4 hPa 0,0 l/m 0,2 km/h (0 Bft) SO 135 0 min 0,0 UV-I -4,7 C -4,3 C 3,2 km/h (1 Bft)
27.02.2012 01:18 -2,7 C 6,5 C -2,5 C -3,2 C -4,3 C 0,0 C 86 % 88 % 0 % 1027,4 hPa 0,0 l/m 0,2 km/h (0 Bft) SO 135 0 min 0,0 UV-I -4,7 C -4,3 C 0,0 km/h (0 Bft)
27.02.2012 01:20 -2,8 C 6,4 C -2,5 C -3,4 C -4,5 C 0,0 C 85 % 87 % 0 % 1027,4 hPa 0,0 l/m 0,0 km/h (0 Bft) SO 135 0 min 0,0 UV-I -5,0 C -4,5 C 0,0 km/h (0 Bft)
27.02.2012 01:25 -2,9 C 6,4 C -2,5 C -3,4 C -4,5 C 0,0 C 85 % 87 % 0 % 1027,4 hPa 0,0 l/m 0,0 km/h (0 Bft) SO 135 0 min 0,0 UV-I -5,1 C -4,5 C 0,0 km/h (0 Bft)
27.02.2012 01:30 -2,9 C 6,4 C -2,7 C -3,5 C -4,6 C 0,0 C 85 % 87 % 0 % 1027,4 hPa 0,0 l/m 0,0 km/h (0 Bft) SO 135 0 min 0,0 UV-I -5,1 C -4,6 C 0,0 km/h (0 Bft)
27.02.2012 01:35 -2,9 C 6,4 C -2,7 C -3,5 C -4,7 C 0,0 C 85 % 87 % 0 % 1027,9 hPa 0,0 l/m 0,0 km/h (0 Bft) SO 135 0 min 0,0 UV-I -5,1 C -4,7 C 0,0 km/h (0 Bft)
27.02.2012 01:40 -2,9 C 6,4 C -2,8 C -3,5 C -4,6 C 0,0 C 85 % 87 % 0 % 1027,9 hPa 0,0 l/m 0,0 km/h (0 Bft) SO 135 0 min 0,0 UV-I -5,1 C -4,6 C 0,0 km/h (0 Bft)
27.02.2012 01:45 -2,9 C 6,4 C -2,8 C -3,5 C -4,6 C 0,0 C 86 % 88 % 0 % 1027,9 hPa 0,0 l/m 0,0 km/h (0 Bft) SO 135 0 min 0,0 UV-I -4,9 C -4,6 C 0,0 km/h (0 Bft)
27.02.2012 01:50 -2,9 C 6,4 C -2,7 C -3,5 C -4,7 C 0,0 C 85 % 88 % 0 % 1027,9 hPa 0,0 l/m 0,0 km/h (0 Bft) SO 135 0 min 0,0 UV-I -5,1 C -4,7 C 0,0 km/h (0 Bft)
27.02.2012 01:55 -2,9 C 6,4 C -2,8 C -3,5 C -4,7 C 0,0 C 85 % 87 % 0 % 1027,8 hPa 0,0 l/m 0,0 km/h (0 Bft) SO 135 0 min 0,0 UV-I -5,1 C -4,7 C 0,0 km/h (0 Bft)
27.02.2012 02:00 -2,9 C 6,4 C -2,7 C -3,6 C -4,9 C 0,0 C 85 % 87 % 0 % 1027,8 hPa 0,0 l/m 0,0 km/h (0 Bft) SO 135 0 min 0,0 UV-I -5,1 C -4,9 C 0,0 km/h (0 Bft)
27.02.2012 02:12 -2,9 C 6,4 C -2,8 C -3,6 C -4,9 C 0,0 C 85 % 87 % 0 % 1027,8 hPa 0,0 l/m 0,0 km/h (0 Bft) N 0 0 min 0,0 UV-I -5,1 C -4,9 C 0,0 km/h (0 Bft)
27.02.2012 02:20 -2,9 C 6,4 C -2,9 C -3,6 C -4,9 C 0,0 C 86 % 87 % 0 % 1027,4 hPa 0,0 l/m 0,0 km/h (0 Bft) SO 135 0 min 0,0 UV-I -4,9 C -4,9 C 0,0 km/h (0 Bft)
27.02.2012 02:25 -2,9 C 6,4 C -2,9 C -3,5 C -4,8 C 0,0 C 86 % 88 % 0 % 1027,4 hPa 0,0 l/m 0,0 km/h (0 Bft) SO 135 0 min 0,0 UV-I -4,9 C -4,8 C 0,0 km/h (0 Bft)
27.02.2012 02:30 -2,9 C 6,4 C -2,7 C -3,5 C -4,7 C 0,0 C 86 % 88 % 0 % 1027,4 hPa 0,0 l/m 0,0 km/h (0 Bft) SO 135 0 min 0,0 UV-I -4,9 C -4,7 C 0,0 km/h (0 Bft)
27.02.2012 02:35 -2,9 C 6,4 C -2,7 C -3,5 C -4,6 C 0,0 C 86 % 88 % 0 % 1027,7 hPa 0,0 l/m 0,0 km/h (0 Bft) SO 135 0 min 0,0 UV-I -4,9 C -4,6 C 0,0 km/h (0 Bft)
27.02.2012 02:40 -2,9 C 6,4 C -2,9 C -3,5 C -4,6 C 0,0 C 85 % 88 % 0 % 1027,7 hPa 0,0 l/m 0,0 km/h (0 Bft) SO 135 0 min 0,0 UV-I -5,1 C -4,6 C 0,0 km/h (0 Bft)
27.02.2012 02:45 -2,9 C 6,4 C -2,9 C -3,4 C -4,5 C 0,0 C 85 % 88 % 0 % 1027,7 hPa 0,0 l/m 0,0 km/h (0 Bft) SO 135 0 min 0,0 UV-I -5,1 C -4,5 C 0,0 km/h (0 Bft)
27.02.2012 02:50 -2,9 C 6,4 C -2,9 C -3,4 C -4,5 C 0,0 C 85 % 88 % 0 % 1027,7 hPa 0,0 l/m 0,0 km/h (0 Bft) SO 135 0 min 0,0 UV-I -5,1 C -4,5 C 0,0 km/h (0 Bft)
27.02.2012 02:55 -2,9 C 6,4 C -2,9 C -3,5 C -4,6 C 0,0 C 85 % 88 % 0 % 1027,6 hPa 0,0 l/m 0,0 km/h (0 Bft) SO 135 0 min 0,0 UV-I -5,1 C -4,6 C 0,0 km/h (0 Bft)
27.02.2012 03:00 -2,9 C 6,4 C -2,9 C -3,5 C -4,8 C 0,0 C 85 % 88 % 0 % 1027,6 hPa 0,0 l/m 0,0 km/h (0 Bft) SO 135 0 min 0,0 UV-I -5,1 C -4,8 C 0,0 km/h (0 Bft)
27.02.2012 03:04 -3,2 C 6,4 C -2,9 C -3,8 C -5,0 C 0,0 C 85 % 88 % 0 % 1027,6 hPa 0,0 l/m 0,0 km/h (0 Bft) SO 135 0 min 0,0 UV-I -5,4 C -5,0 C 0,0 km/h (0 Bft)
27.02.2012 03:09 -3,3 C 6,4 C -3,1 C -3,9 C -5,1 C 0,0 C 85 % 88 % 0 % 1027,6 hPa 0,0 l/m 0,0 km/h (0 Bft) SO 135 0 min 0,0 UV-I -5,5 C -5,1 C 0,0 km/h (0 Bft)
27.02.2012 03:14 -3,4 C 6,4 C -3,1 C -4,0 C -5,2 C 0,0 C 85 % 88 % 0 % 1027,9 hPa 0,0 l/m 0,0 km/h (0 Bft) SO 135 0 min 0,0 UV-I -5,5 C -5,2 C 0,0 km/h (0 Bft)
27.02.2012 03:19 -3,4 C 6,4 C -3,1 C -4,0 C -5,2 C 0,0 C 85 % 88 % 0 % 1027,9 hPa 0,0 l/m 0,0 km/h (0 Bft) SO 135 0 min 0,0 UV-I -5,5 C -5,2 C 0,0 km/h (0 Bft)
27.02.2012 03:25 -3,5 C 6,4 C -3,1 C -4,1 C -5,4 C 0,0 C 86 % 88 % 0 % 1027,9 hPa 0,0 l/m 0,0 km/h (0 Bft) SO 135 0 min 0,0 UV-I -5,5 C -5,4 C 0,0 km/h (0 Bft)
27.02.2012 03:30 -3,6 C 6,4 C -3,1 C -4,2 C -5,4 C 0,0 C 86 % 88 % 0 % 1027,9 hPa 0,0 l/m 0,0 km/h (0 Bft) SO 135 0 min 0,0 UV-I -5,6 C -5,4 C 0,0 km/h (0 Bft)
27.02.2012 03:35 -3,5 C 6,4 C -3,3 C -4,1 C -5,2 C 0,0 C 86 % 88 % 0 % 1027,9 hPa 0,0 l/m 0,0 km/h (0 Bft) SO 135 0 min 0,0 UV-I -5,5 C -5,2 C 0,0 km/h (0 Bft)
27.02.2012 03:40 -3,6 C 6,4 C -3,3 C -4,1 C -5,1 C 0,0 C 86 % 88 % 0 % 1027,9 hPa 0,0 l/m 0,0 km/h (0 Bft) SO 135 0 min 0,0 UV-I -5,6 C -5,1 C 0,0 km/h (0 Bft)
27.02.2012 03:45 -3,7 C 6,3 C -3,3 C -4,2 C -5,1 C 0,0 C 86 % 88 % 0 % 1027,9 hPa 0,0 l/m 0,0 km/h (0 Bft) SO 135 0 min 0,0 UV-I -5,7 C -5,1 C 0,0 km/h (0 Bft)
27.02.2012 03:50 -3,7 C 6,3 C -3,3 C -4,2 C -5,3 C 0,0 C 86 % 88 % 0 % 1027,9 hPa 0,0 l/m 0,0 km/h (0 Bft) SO 135 0 min 0,0 UV-I -5,7 C -5,3 C 0,0 km/h (0 Bft)
27.02.2012 03:55 -3,7 C 6,3 C -3,3 C -4,3 C -5,4 C 0,0 C 86 % 88 % 0 % 1027,7 hPa 0,0 l/m 0,0 km/h (0 Bft) SO 135 0 min 0,0 UV-I -5,7 C -5,4 C 0,0 km/h (0 Bft)
27.02.2012 04:00 -3,9 C 6,3 C -3,5 C -4,3 C -5,2 C 0,0 C 86 % 88 % 0 % 1027,7 hPa 0,0 l/m 0,0 km/h (0 Bft) SO 135 0 min 0,0 UV-I -5,9 C -5,2 C 0,0 km/h (0 Bft)
27.02.2012 04:14 -4,0 C 6,3 C -3,5 C -4,4 C -5,3 C 0,0 C 86 % 88 % 0 % 1027,7 hPa 0,0 l/m 0,0 km/h (0 Bft) SO 135 0 min 0,0 UV-I -6,0 C -5,3 C 0,0 km/h (0 Bft)
27.02.2012 04:15 -3,9 C 6,3 C -3,3 C -4,3 C -5,1 C 0,0 C 87 % 89 % 0 % 1027,9 hPa 0,0 l/m 0,0 km/h (0 Bft) SO 135 0 min 0,0 UV-I -5,7 C -5,1 C 0,0 km/h (0 Bft)
27.02.2012 04:25 -3,7 C 6,3 C -3,3 C -4,0 C -4,5 C 0,0 C 88 % 89 % 0 % 1027,9 hPa 0,0 l/m 0,0 km/h (0 Bft) SO 135 0 min 0,0 UV-I -5,4 C -4,5 C 0,0 km/h (0 Bft)
27.02.2012 04:30 -3,7 C 6,3 C -3,3 C -4,0 C -4,5 C 0,0 C 88 % 89 % 0 % 1027,9 hPa 0,0 l/m 0,0 km/h (0 Bft) SO 135 0 min 0,0 UV-I -5,4 C -4,5 C 0,0 km/h (0 Bft)
27.02.2012 04:35 -3,9 C 6,3 C -3,3 C -4,2 C -4,7 C 0,0 C 88 % 89 % 0 % 1027,4 hPa 0,0 l/m 0,0 km/h (0 Bft) SO 135 0 min 0,0 UV-I -5,6 C -4,7 C 0,0 km/h (0 Bft)
27.02.2012 04:40 -3,9 C 6,3 C -3,3 C -4,2 C -4,9 C 0,0 C 88 % 89 % 0 % 1027,4 hPa 0,0 l/m 0,0 km/h (0 Bft) SO 135 0 min 0,0 UV-I -5,6 C -4,9 C 0,0 km/h (0 Bft)
27.02.2012 04:45 -4,0 C 6,3 C -3,4 C -4,4 C -5,1 C 0,0 C 88 % 89 % 0 % 1027,4 hPa 0,0 l/m 0,0 km/h (0 Bft) SO 135 0 min 0,0 UV-I -5,7 C -5,1 C 0,0 km/h (0 Bft)
27.02.2012 04:50 -4,0 C 6,3 C -3,3 C -4,4 C -5,2 C 0,0 C 88 % 89 % 0 % 1027,4 hPa 0,0 l/m 0,0 km/h (0 Bft) SO 135 0 min 0,0 UV-I -5,7 C -5,2 C 1,8 km/h (1 Bft)
27.02.2012 04:55 -4,0 C 6,3 C -3,3 C -4,4 C -5,1 C 0,0 C 88 % 89 % 0 % 1027,7 hPa 0,0 l/m 0,2 km/h (0 Bft) SO 135 0 min 0,0 UV-I -5,7 C -5,1 C 0,0 km/h (0 Bft)
27.02.2012 05:00 -4,0 C 6,3 C -3,3 C -4,4 C -5,2 C 0,0 C 88 % 89 % 0 % 1027,7 hPa 0,0 l/m 0,2 km/h (0 Bft) SO 135 0 min 0,0 UV-I -5,7 C -5,2 C 0,0 km/h (0 Bft)
27.02.2012 05:10 -4,1 C 6,3 C -3,5 C -4,4 C -5,1 C 0,0 C 88 % 89 % 0 % 1027,7 hPa 0,0 l/m 0,0 km/h (0 Bft) N 0 0 min 0,0 UV-I -5,8 C -5,1 C 0,0 km/h (0 Bft)
27.02.2012 05:20 -4,1 C 6,3 C -3,5 C -4,5 C -5,2 C 0,0 C 88 % 89 % 0 % 1027,6 hPa 0,0 l/m 0,0 km/h (0 Bft) SO 135 0 min 0,0 UV-I -5,8 C -5,2 C 0,0 km/h (0 Bft)
27.02.2012 05:25 -4,1 C 6,3 C -3,6 C -4,4 C -5,0 C 0,0 C 88 % 89 % 0 % 1027,6 hPa 0,0 l/m 0,0 km/h (0 Bft) SO 135 0 min 0,0 UV-I -5,8 C -5,0 C 0,0 km/h (0 Bft)
27.02.2012 05:30 -4,1 C 6,3 C -3,6 C -4,4 C -4,9 C 0,0 C 88 % 89 % 0 % 1027,6 hPa 0,0 l/m 0,0 km/h (0 Bft) SO 135 0 min 0,0 UV-I -5,8 C -4,9 C 0,0 km/h (0 Bft)
27.02.2012 05:35 -4,1 C 6,3 C -3,5 C -4,4 C -5,0 C 0,0 C 88 % 89 % 0 % 1027,5 hPa 0,0 l/m 0,0 km/h (0 Bft) SO 135 0 min 0,0 UV-I -5,8 C -5,0 C 0,0 km/h (0 Bft)
27.02.2012 05:40 -4,1 C 6,3 C -3,5 C -4,5 C -5,2 C 0,0 C 88 % 89 % 0 % 1027,5 hPa 0,0 l/m 0,0 km/h (0 Bft) SO 135 0 min 0,0 UV-I -5,8 C -5,2 C 0,0 km/h (0 Bft)
27.02.2012 05:45 -4,1 C 6,3 C -3,5 C -4,5 C -5,4 C 0,0 C 88 % 89 % 0 % 1027,5 hPa 0,0 l/m 0,0 km/h (0 Bft) SO 135 0 min 0,0 UV-I -5,8 C -5,4 C 0,0 km/h (0 Bft)
27.02.2012 05:50 -4,2 C 6,3 C -3,6 C -4,6 C -5,3 C 0,0 C 88 % 89 % 0 % 1027,5 hPa 0,0 l/m 0,0 km/h (0 Bft) SO 135 0 min 0,0 UV-I -5,9 C -5,3 C 0,0 km/h (0 Bft)
27.02.2012 05:55 -4,1 C 6,3 C -3,6 C -4,5 C -5,4 C 0,0 C 88 % 89 % 0 % 1027,4 hPa 0,0 l/m 0,0 km/h (0 Bft) SO 135 0 min 0,0 UV-I -5,8 C -5,4 C 0,0 km/h (0 Bft)
27.02.2012 06:00 -4,1 C 6,3 C -3,5 C -4,5 C -5,4 C 0,0 C 88 % 89 % 0 % 1027,4 hPa 0,0 l/m 0,0 km/h (0 Bft) SO 135 0 min 0,0 UV-I -5,8 C -5,4 C 0,0 km/h (0 Bft)
27.02.2012 06:10 -4,3 C 6,3 C -3,6 C -4,7 C -5,5 C 0,0 C 88 % 89 % 0 % 1027,4 hPa 0,0 l/m 0,0 km/h (0 Bft) N 0 0 min 0,0 UV-I -6,0 C -5,5 C 0,0 km/h (0 Bft)
27.02.2012 06:20 -4,1 C 6,3 C -3,3 C -4,4 C -5,1 C 0,0 C 89 % 90 % 0 % 1027,2 hPa 0,0 l/m 0,3 km/h (0 Bft) SO 135 0 min 0,0 UV-I -5,6 C -5,1 C 2,9 km/h (1 Bft)
27.02.2012 06:25 -3,9 C 6,3 C -3,3 C -4,2 C -4,9 C 0,0 C 89 % 90 % 0 % 1027,2 hPa 0,0 l/m 0,5 km/h (0 Bft) SO 135 0 min 0,0 UV-I -5,4 C -4,9 C 0,0 km/h (0 Bft)
27.02.2012 06:30 -3,7 C 6,3 C -3,3 C -4,1 C -4,9 C 0,0 C 89 % 90 % 0 % 1027,2 hPa 0,0 l/m 0,3 km/h (0 Bft) SO 135 0 min 0,0 UV-I -5,2 C -4,9 C 0,0 km/h (0 Bft)
27.02.2012 06:35 -3,7 C 6,3 C -3,4 C -4,1 C -4,9 C 0,0 C 89 % 89 % 0 % 1027,2 hPa 0,0 l/m 0,0 km/h (0 Bft) SO 135 0 min 0,0 UV-I -5,2 C -4,9 C 0,0 km/h (0 Bft)
27.02.2012 06:40 -3,7 C 6,3 C -3,3 C -4,1 C -4,9 C 0,0 C 89 % 89 % 0 % 1027,2 hPa 0,0 l/m 0,0 km/h (0 Bft) SO 135 0 min 0,0 UV-I -5,2 C -4,9 C 0,0 km/h (0 Bft)
27.02.2012 06:45 -3,8 C 6,3 C -3,3 C -4,2 C -5,0 C 0,0 C 89 % 89 % 0 % 1027,2 hPa 0,0 l/m 0,0 km/h (0 Bft) SO 135 0 min 0,0 UV-I -5,3 C -5,0 C 0,0 km/h (0 Bft)
27.02.2012 06:50 -3,7 C 6,3 C -3,3 C -4,2 C -5,2 C 0,0 C 89 % 89 % 0 % 1027,2 hPa 0,0 l/m 0,0 km/h (0 Bft) SO 135 0 min 0,0 UV-I -5,2 C -5,2 C 0,0 km/h (0 Bft)
27.02.2012 06:55 -3,9 C 6,3 C -3,3 C -4,4 C -5,4 C 0,0 C 89 % 89 % 0 % 1027,1 hPa 0,0 l/m 0,0 km/h (0 Bft) SO 135 0 min 0,0 UV-I -5,4 C -5,4 C 0,0 km/h (0 Bft)
27.02.2012 07:00 -3,9 C 6,3 C -3,3 C -4,4 C -5,5 C 0,0 C 89 % 89 % 0 % 1027,1 hPa 0,0 l/m 0,2 km/h (0 Bft) SO 135 0 min 0,0 UV-I -5,4 C -5,5 C 0,0 km/h (0 Bft)
27.02.2012 07:15 -3,8 C 6,3 C -3,3 C -4,2 C -5,0 C 0,0 C 89 % 90 % 0 % 1027,3 hPa 0,0 l/m 0,2 km/h (0 Bft) SO 135 0 min 0,0 UV-I -5,3 C -5,0 C 1,6 km/h (1 Bft)
27.02.2012 07:17 -3,8 C 6,3 C -3,3 C -4,2 C -5,0 C 0,0 C 89 % 90 % 0 % 1027,3 hPa 0,0 l/m 0,2 km/h (0 Bft) SO 135 0 min 0,0 UV-I -5,3 C -5,0 C 1,6 km/h (1 Bft)
27.02.2012 07:20 -3,7 C 6,3 C -3,1 C -4,1 C -4,9 C 0,0 C 89 % 90 % 0 % 1027,3 hPa 0,0 l/m 0,3 km/h (0 Bft) SO 135 0 min 0,0 UV-I -5,2 C -4,9 C 0,0 km/h (0 Bft)
27.02.2012 07:25 -3,7 C 6,3 C -3,3 C -4,1 C -4,9 C 0,0 C 89 % 90 % 0 % 1027,3 hPa 0,0 l/m 0,2 km/h (0 Bft) SO 135 0 min 0,0 UV-I -5,2 C -4,9 C 0,0 km/h (0 Bft)
27.02.2012 07:30 -3,9 C 6,3 C -3,3 C -4,2 C -4,9 C 0,0 C 89 % 90 % 0 % 1027,3 hPa 0,0 l/m 0,0 km/h (0 Bft) SO 135 0 min 0,0 UV-I -5,4 C -4,9 C 0,0 km/h (0 Bft)
27.02.2012 07:35 -3,7 C 6,3 C -3,3 C -4,0 C -4,7 C 0,0 C 89 % 90 % 0 % 1027,4 hPa 0,0 l/m 0,0 km/h (0 Bft) SO 135 0 min 0,0 UV-I -5,2 C -4,7 C 0,0 km/h (0 Bft)
27.02.2012 07:40 -3,7 C 6,3 C -3,1 C -4,0 C -4,5 C 0,0 C 89 % 90 % 0 % 1027,4 hPa 0,0 l/m 0,0 km/h (0 Bft) SO 135 0 min 0,0 UV-I -5,2 C -4,5 C 0,0 km/h (0 Bft)
27.02.2012 07:45 -3,5 C 6,3 C -3,1 C -3,8 C -4,3 C 0,0 C 90 % 90 % 0 % 1027,4 hPa 0,0 l/m 0,0 km/h (0 Bft) SO 135 0 min 0,0 UV-I -4,9 C -4,3 C 0,0 km/h (0 Bft)
27.02.2012 07:50 -3,6 C 6,3 C -2,9 C -3,8 C -4,1 C 0,0 C 90 % 90 % 0 % 1027,4 hPa 0,0 l/m 0,0 km/h (0 Bft) SO 135 0 min 0,0 UV-I -5,0 C -4,1 C 0,0 km/h (0 Bft)
27.02.2012 07:55 -3,5 C 6,3 C -2,9 C -3,5 C -3,5 C 0,0 C 90 % 90 % 0 % 1027,4 hPa 0,0 l/m 0,0 km/h (0 Bft) SO 135 0 min 0,0 UV-I -4,9 C -3,5 C 0,0 km/h (0 Bft)
27.02.2012 08:00 -3,5 C 6,2 C -2,8 C -3,0 C -3,0 C 0,5 C 90 % 90 % 13 % 1027,4 hPa 0,0 l/m 0,0 km/h (0 Bft) SO 135 0 min 0,0 UV-I -4,9 C -3,0 C 0,0 km/h (0 Bft)
27.02.2012 08:05 -3,3 C 6,2 C -2,3 C -2,2 C -2,2 C 1,1 C 90 % 90 % 29 % 1027,4 hPa 0,0 l/m 0,3 km/h (0 Bft) SO 135 0 min 0,0 UV-I -4,7 C -2,2 C 3,2 km/h (1 Bft)
27.02.2012 08:10 -2,9 C 6,2 C -1,6 C -2,0 C -2,0 C 0,9 C 90 % 90 % 24 % 1027,4 hPa 0,0 l/m 1,0 km/h (0 Bft) SO 135 0 min 0,0 UV-I -4,3 C -2,0 C 2,4 km/h (1 Bft)
27.02.2012 08:15 -2,7 C 6,2 C -0,9 C -1,4 C -1,4 C 1,3 C 91 % 90 % 34 % 1027,4 hPa 0,0 l/m 1,0 km/h (0 Bft) SO 135 0 min 0,0 UV-I -4,0 C -1,4 C 0,0 km/h (0 Bft)
27.02.2012 08:20 -2,5 C 6,2 C -0,7 C -0,8 C -0,8 C 1,7 C 91 % 90 % 45 % 1027,4 hPa 0,0 l/m 0,2 km/h (0 Bft) SO 135 0 min 0,0 UV-I -3,8 C -0,8 C 3,9 km/h (1 Bft)
27.02.2012 08:25 -2,3 C 6,2 C -0,5 C -0,8 C -0,8 C 1,5 C 91 % 89 % 39 % 1027,4 hPa 0,0 l/m 0,0 km/h (0 Bft) SO 135 0 min 0,0 UV-I -3,6 C -0,8 C 0,0 km/h (0 Bft)
27.02.2012 08:30 -2,1 C 6,2 C -0,8 C -1,2 C -1,2 C 0,9 C 91 % 88 % 24 % 1027,4 hPa 0,0 l/m 0,0 km/h (0 Bft) SO 135 0 min 0,0 UV-I -3,4 C -1,2 C 0,0 km/h (0 Bft)
27.02.2012 08:35 -2,1 C 6,2 C -0,9 C -1,4 C -1,4 C 0,7 C 91 % 88 % 18 % 1027,7 hPa 0,0 l/m 0,0 km/h (0 Bft) SO 135 0 min 0,0 UV-I -3,4 C -1,4 C 0,0 km/h (0 Bft)
27.02.2012 08:40 -2,1 C 6,1 C -0,9 C -1,0 C -1,0 C 1,1 C 91 % 88 % 29 % 1027,7 hPa 0,0 l/m 0,0 km/h (0 Bft) SO 135 0 min 0,0 UV-I -3,4 C -1,0 C 0,0 km/h (0 Bft)
27.02.2012 08:45 -1,9 C 6,1 C -0,8 C -0,6 C -0,6 C 1,3 C 91 % 89 % 34 % 1027,7 hPa 0,0 l/m 0,0 km/h (0 Bft) SO 135 0 min 0,0 UV-I -3,2 C -0,6 C 0,0 km/h (0 Bft)
27.02.2012 08:50 -1,7 C 6,1 C -0,8 C -0,6 C -0,6 C 1,1 C 91 % 89 % 29 % 1027,7 hPa 0,0 l/m 0,0 km/h (0 Bft) SO 135 0 min 0,0 UV-I -3,0 C -0,6 C 0,0 km/h (0 Bft)
27.02.2012 08:55 -1,5 C 6,0 C -0,7 C -0,1 C -0,1 C 1,4 C 91 % 89 % 37 % 1027,9 hPa 0,0 l/m 0,5 km/h (0 Bft) SO 135 0 min 0,0 UV-I -2,8 C -0,1 C 0,0 km/h (0 Bft)
27.02.2012 09:00 -1,1 C 6,0 C -0,7 C 0,3 C 0,3 C 1,4 C 91 % 89 % 37 % 1027,9 hPa 0,0 l/m 1,1 km/h (1 Bft) SO 135 0 min 0,0 UV-I -2,4 C 0,3 C 3,2 km/h (1 Bft)
27.02.2012 09:15 -0,5 C 6,1 C -0,1 C 0,0 C 0,0 C 0,5 C 90 % 89 % 13 % 1027,9 hPa 0,0 l/m 1,8 km/h (1 Bft) SO 135 0 min 0,0 UV-I -1,9 C 0,0 C 4,3 km/h (1 Bft)
27.02.2012 09:18 -0,5 C 6,1 C -0,1 C 0,0 C 0,0 C 0,5 C 90 % 89 % 13 % 1027,9 hPa 0,0 l/m 1,8 km/h (1 Bft) SO 135 0 min 0,0 UV-I -1,9 C 0,0 C 3,1 km/h (1 Bft)
27.02.2012 09:20 -0,3 C 5,9 C 0,0 C 0,6 C 0,6 C 0,9 C 91 % 89 % 24 % 1027,9 hPa 0,0 l/m 2,1 km/h (1 Bft) SO 135 0 min 0,0 UV-I -1,6 C 0,6 C 3,2 km/h (1 Bft)
27.02.2012 09:25 0,0 C 5,9 C 0,3 C 1,0 C 1,0 C 1,0 C 90 % 89 % 26 % 1027,9 hPa 0,0 l/m 2,3 km/h (1 Bft) SO 135 0 min 0,0 UV-I -1,4 C 1,0 C 3,5 km/h (1 Bft)
27.02.2012 09:30 0,3 C 5,9 C 0,4 C 1,0 C 1,0 C 0,7 C 90 % 89 % 18 % 1027,9 hPa 0,0 l/m 2,3 km/h (1 Bft) SO 135 0 min 0,0 UV-I -1,1 C 1,0 C 6,1 km/h (2 Bft)
27.02.2012 09:35 0,4 C 5,9 C 0,5 C 1,0 C 1,0 C 0,6 C 89 % 88 % 16 % 1028,2 hPa 0,0 l/m 1,4 km/h (1 Bft) SO 135 0 min 0,0 UV-I -1,2 C 1,0 C 1,9 km/h (1 Bft)
27.02.2012 09:40 0,5 C 5,9 C 0,6 C 1,7 C 1,7 C 1,2 C 89 % 88 % 32 % 1028,2 hPa 0,0 l/m 0,6 km/h (0 Bft) SO 135 0 min 0,0 UV-I -1,1 C 1,7 C 0,0 km/h (0 Bft)
27.02.2012 09:45 0,7 C 5,9 C 0,9 C 2,1 C 2,1 C 1,4 C 88 % 88 % 37 % 1028,2 hPa 0,0 l/m 1,4 km/h (1 Bft) SO 135 0 min 0,0 UV-I -1,1 C 2,1 C 2,6 km/h (1 Bft)
27.02.2012 09:50 0,8 C 5,9 C 1,1 C 2,5 C 2,5 C 1,7 C 88 % 88 % 45 % 1028,2 hPa 0,0 l/m 2,6 km/h (1 Bft) S-SW 202 0 min 0,0 UV-I -1,0 C 2,5 C 6,6 km/h (2 Bft)
27.02.2012 09:55 1,1 C 5,9 C 1,4 C 1,8 C 1,8 C 0,7 C 87 % 88 % 18 % 1028,2 hPa 0,0 l/m 4,0 km/h (1 Bft) O 90 0 min 0,0 UV-I -0,8 C 1,8 C 4,5 km/h (1 Bft)
27.02.2012 10:00 1,3 C 5,9 C 1,5 C 1,9 C 1,9 C 0,6 C 86 % 87 % 16 % 1028,2 hPa 0,0 l/m 4,2 km/h (1 Bft) W-SW 247 0 min 0,0 UV-I -0,8 C 1,9 C 8,7 km/h (2 Bft)
27.02.2012 10:14 1,5 C 5,9 C 1,7 C 3,2 C 3,2 C 1,7 C 85 % 86 % 45 % 1028,2 hPa 0,0 l/m 2,6 km/h (1 Bft) N 0 0 min 0,0 UV-I -0,7 C 3,2 C 8,9 km/h (2 Bft)
27.02.2012 10:20 1,6 C 5,9 C 1,9 C 2,7 C 2,7 C 1,1 C 84 % 86 % 29 % 1028,2 hPa 0,0 l/m 3,4 km/h (1 Bft) SW 225 0 min 0,0 UV-I -0,8 C 2,7 C 6,4 km/h (2 Bft)
27.02.2012 10:25 1,7 C 5,9 C 1,9 C 2,5 C 2,5 C 0,8 C 83 % 86 % 21 % 1028,2 hPa 0,0 l/m 5,0 km/h (1 Bft) W-SW 247 0 min 0,0 UV-I -0,9 C 1,2 C 6,9 km/h (2 Bft)
27.02.2012 10:30 1,9 C 5,9 C 2,1 C 2,6 C 2,6 C 0,7 C 83 % 86 % 18 % 1028,2 hPa 0,0 l/m 5,1 km/h (1 Bft) N-NW 337 0 min 0,0 UV-I -0,7 C 1,3 C 9,5 km/h (2 Bft)
27.02.2012 10:35 2,0 C 5,9 C 2,3 C 3,1 C 3,1 C 1,1 C 83 % 85 % 29 % 1027,8 hPa 0,0 l/m 6,1 km/h (2 Bft) W-SW 247 0 min 0,0 UV-I -0,6 C 1,5 C 9,2 km/h (2 Bft)
27.02.2012 10:40 2,3 C 5,9 C 2,4 C 3,3 C 3,3 C 1,0 C 82 % 85 % 26 % 1027,8 hPa 0,0 l/m 6,4 km/h (2 Bft) W 270 0 min 0,0 UV-I -0,4 C 1,6 C 10,3 km/h (2 Bft)
27.02.2012 10:45 2,2 C 5,9 C 2,3 C 2,5 C 2,5 C 0,3 C 81 % 84 % 8 % 1027,8 hPa 0,0 l/m 7,1 km/h (2 Bft) W-SW 247 0 min 0,0 UV-I -0,7 C 0,5 C 5,5 km/h (1 Bft)
27.02.2012 10:50 2,3 C 5,8 C 2,3 C 2,5 C 2,5 C 0,2 C 82 % 84 % 5 % 1027,8 hPa 0,0 l/m 6,6 km/h (2 Bft) W 270 0 min 0,0 UV-I -0,4 C 0,6 C 12,6 km/h (3 Bft)
27.02.2012 10:55 2,4 C 5,8 C 2,5 C 3,1 C 3,1 C 0,7 C 82 % 85 % 18 % 1027,3 hPa 0,0 l/m 6,1 km/h (2 Bft) W-SW 247 0 min 0,0 UV-I -0,4 C 1,5 C 7,9 km/h (2 Bft)
27.02.2012 11:00 2,7 C 5,8 C 2,7 C 3,2 C 3,2 C 0,5 C 82 % 85 % 13 % 1027,3 hPa 0,0 l/m 6,4 km/h (2 Bft) SW 225 0 min 0,0 UV-I -0,1 C 1,5 C 8,0 km/h (2 Bft)
27.02.2012 11:10 2,8 C 5,8 C 3,0 C 3,6 C 2,7 C 0,8 C 82 % 84 % 21 % 1027,3 hPa 0,0 l/m 9,2 km/h (2 Bft) N 0 0 min 0,0 UV-I 0,0 C 0,1 C 16,9 km/h (3 Bft)
27.02.2012 11:20 3,1 C 5,8 C 3,3 C 3,9 C 3,6 C 0,8 C 82 % 84 % 21 % 1027,8 hPa 0,0 l/m 8,2 km/h (2 Bft) SW 225 0 min 0,0 UV-I 0,3 C 1,4 C 7,7 km/h (2 Bft)
27.02.2012 11:25 3,2 C 5,8 C 3,3 C 3,6 C 3,6 C 0,4 C 81 % 83 % 11 % 1027,8 hPa 0,0 l/m 8,4 km/h (2 Bft) W-SW 247 0 min 0,0 UV-I 0,3 C 1,4 C 10,3 km/h (2 Bft)
27.02.2012 11:30 3,2 C 5,8 C 3,4 C 3,6 C 3,6 C 0,4 C 81 % 83 % 11 % 1027,8 hPa 0,0 l/m 8,5 km/h (2 Bft) W-SW 247 0 min 0,0 UV-I 0,3 C 1,4 C 10,0 km/h (2 Bft)
27.02.2012 11:35 3,4 C 5,9 C 3,4 C 4,1 C 3,3 C 0,7 C 80 % 82 % 18 % 1027,1 hPa 0,0 l/m 9,7 km/h (2 Bft) SW 225 0 min 0,0 UV-I 0,3 C 0,7 C 10,1 km/h (2 Bft)
27.02.2012 11:40 3,4 C 5,9 C 3,5 C 4,1 C 3,5 C 0,7 C 80 % 82 % 18 % 1027,1 hPa 0,0 l/m 9,5 km/h (2 Bft) W-SW 247 0 min 0,0 UV-I 0,3 C 1,0 C 10,5 km/h (2 Bft)
27.02.2012 11:45 3,6 C 5,9 C 3,5 C 4,9 C 4,8 C 1,3 C 80 % 82 % 34 % 1027,1 hPa 0,0 l/m 8,5 km/h (2 Bft) W-SW 247 0 min 0,0 UV-I 0,5 C 2,8 C 10,9 km/h (2 Bft)
27.02.2012 11:50 3,6 C 5,9 C 3,5 C 5,7 C 5,3 C 2,1 C 79 % 82 % 55 % 1027,1 hPa 0,0 l/m 8,7 km/h (2 Bft) W-SW 247 0 min 0,0 UV-I 0,3 C 3,3 C 10,5 km/h (2 Bft)
27.02.2012 11:55 3,7 C 5,9 C 3,7 C 6,3 C 5,9 C 2,6 C 79 % 82 % 68 % 1027,2 hPa 0,0 l/m 9,2 km/h (2 Bft) SW 225 0 min 0,0 UV-I 0,4 C 3,9 C 12,1 km/h (2 Bft)
27.02.2012 12:00 4,0 C 5,8 C 4,0 C 6,9 C 6,5 C 2,9 C 79 % 83 % 76 % 1027,2 hPa 0,0 l/m 10,1 km/h (2 Bft) W 270 0 min 0,0 UV-I 0,7 C 4,4 C 12,4 km/h (3 Bft)
27.02.2012 12:15 4,2 C 5,8 C 4,5 C 6,8 C 6,1 C 2,6 C 77 % 80 % 68 % 1026,6 hPa 0,0 l/m 9,3 km/h (2 Bft) SW 225 0 min 0,0 UV-I 0,5 C 4,1 C 9,5 km/h (2 Bft)
27.02.2012 12:18 4,2 C 5,8 C 4,5 C 4,6 C 6,1 C 0,4 C 77 % 80 % 11 % 1026,6 hPa 0,0 l/m 9,3 km/h (2 Bft) SW 225 0 min 0,0 UV-I 0,5 C 4,1 C 9,5 km/h (2 Bft)
27.02.2012 12:20 4,5 C 5,8 C 4,7 C 7,2 C 7,0 C 2,7 C 76 % 78 % 71 % 1026,6 hPa 0,0 l/m 8,5 km/h (2 Bft) SW 225 0 min 0,0 UV-I 0,6 C 5,4 C 10,1 km/h (2 Bft)
27.02.2012 12:25 4,5 C 5,8 C 4,7 C 7,2 C 6,5 C 2,7 C 75 % 77 % 71 % 1026,6 hPa 0,0 l/m 8,7 km/h (2 Bft) SW 225 0 min 0,0 UV-I 0,5 C 4,7 C 13,2 km/h (3 Bft)
27.02.2012 12:30 4,5 C 5,8 C 4,7 C 6,5 C 5,6 C 2,0 C 74 % 77 % 53 % 1026,6 hPa 0,0 l/m 9,7 km/h (2 Bft) W-SW 247 0 min 0,0 UV-I 0,3 C 3,4 C 12,2 km/h (2 Bft)
27.02.2012 12:35 4,4 C 5,8 C 4,5 C 5,6 C 4,6 C 1,2 C 74 % 77 % 32 % 1026,4 hPa 0,0 l/m 10,0 km/h (2 Bft) W-SW 247 0 min 0,0 UV-I 0,2 C 2,2 C 13,7 km/h (3 Bft)
27.02.2012 12:40 4,5 C 5,8 C 4,5 C 5,1 C 4,4 C 0,6 C 75 % 77 % 16 % 1026,4 hPa 0,0 l/m 9,0 km/h (2 Bft) W 270 0 min 0,0 UV-I 0,5 C 2,2 C 17,2 km/h (3 Bft)
27.02.2012 12:45 4,4 C 5,8 C 4,7 C 4,8 C 4,8 C 0,4 C 75 % 78 % 11 % 1026,4 hPa 0,0 l/m 7,2 km/h (2 Bft) SW 225 0 min 0,0 UV-I 0,4 C 3,1 C 7,7 km/h (2 Bft)
27.02.2012 12:50 4,7 C 5,8 C 4,9 C 5,7 C 5,7 C 1,0 C 75 % 78 % 26 % 1026,4 hPa 0,0 l/m 6,1 km/h (2 Bft) O-SO 112 0 min 0,0 UV-I 0,7 C 4,5 C 7,4 km/h (2 Bft)
27.02.2012 12:55 4,6 C 5,8 C 4,8 C 5,8 C 5,1 C 1,2 C 75 % 77 % 32 % 1026,1 hPa 0,0 l/m 7,7 km/h (2 Bft) SW 225 0 min 0,0 UV-I 0,6 C 3,3 C 12,7 km/h (3 Bft)
27.02.2012 13:00 4,6 C 5,8 C 4,8 C 5,3 C 4,5 C 0,7 C 75 % 77 % 18 % 1026,1 hPa 0,0 l/m 8,5 km/h (2 Bft) W 270 0 min 0,0 UV-I 0,6 C 2,4 C 8,0 km/h (2 Bft)
27.02.2012 13:09 4,7 C 5,8 C 4,7 C 4,8 C 4,8 C 0,1 C 74 % 77 % 3 % 1026,1 hPa 0,0 l/m 6,3 km/h (2 Bft) N 0 0 min 0,0 UV-I 0,5 C 3,4 C 6,3 km/h (2 Bft)
27.02.2012 13:15 4,8 C 5,8 C 4,9 C 5,8 C 5,8 C 1,0 C 75 % 77 % 26 % 1025,8 hPa 0,0 l/m 5,8 km/h (2 Bft) SW 225 0 min 0,0 UV-I 0,8 C 4,7 C 6,3 km/h (2 Bft)
27.02.2012 13:20 4,9 C 5,8 C 5,1 C 6,3 C 6,3 C 1,4 C 74 % 77 % 37 % 1025,8 hPa 0,0 l/m 6,0 km/h (2 Bft) W-SW 247 0 min 0,0 UV-I 0,7 C 5,2 C 7,7 km/h (2 Bft)
27.02.2012 13:25 5,0 C 5,8 C 5,2 C 6,2 C 6,2 C 1,2 C 73 % 76 % 32 % 1025,8 hPa 0,0 l/m 6,3 km/h (2 Bft) S-SW 202 0 min 0,0 UV-I 0,6 C 5,0 C 5,8 km/h (2 Bft)
27.02.2012 13:30 5,2 C 5,8 C 5,5 C 6,8 C 6,8 C 1,6 C 73 % 76 % 42 % 1025,8 hPa 0,0 l/m 5,8 km/h (2 Bft) W-SW 247 0 min 0,0 UV-I 0,8 C 5,9 C 8,0 km/h (2 Bft)
27.02.2012 13:35 5,3 C 5,8 C 5,5 C 7,2 C 6,7 C 1,9 C 73 % 74 % 50 % 1026,1 hPa 0,0 l/m 7,7 km/h (2 Bft) S-SW 202 0 min 0,0 UV-I 0,9 C 5,2 C 11,4 km/h (2 Bft)
27.02.2012 13:40 5,3 C 5,8 C 5,3 C 6,9 C 6,3 C 1,6 C 72 % 75 % 42 % 1026,1 hPa 0,0 l/m 8,4 km/h (2 Bft) W-SW 247 0 min 0,0 UV-I 0,7 C 4,6 C 7,6 km/h (2 Bft)
27.02.2012 13:45 5,6 C 5,8 C 5,6 C 7,0 C 7,0 C 1,4 C 72 % 75 % 37 % 1026,1 hPa 0,0 l/m 6,4 km/h (2 Bft) W-SW 247 0 min 0,0 UV-I 1,0 C 5,9 C 9,7 km/h (2 Bft)
27.02.2012 13:50 5,6 C 5,8 C 5,6 C 6,9 C 6,9 C 1,3 C 71 % 74 % 34 % 1026,1 hPa 0,0 l/m 6,4 km/h (2 Bft) W-SW 247 0 min 0,0 UV-I 0,8 C 5,8 C 10,6 km/h (2 Bft)
27.02.2012 13:55 5,5 C 5,8 C 5,9 C 6,9 C 6,0 C 1,4 C 70 % 72 % 37 % 1025,5 hPa 0,0 l/m 9,7 km/h (2 Bft) W-SW 247 0 min 0,0 UV-I 0,5 C 3,9 C 11,4 km/h (2 Bft)
27.02.2012 14:00 5,7 C 5,8 C 5,8 C 6,5 C 5,9 C 0,8 C 68 % 71 % 21 % 1025,5 hPa 0,0 l/m 10,1 km/h (2 Bft) W-SW 247 0 min 0,0 UV-I 0,3 C 3,7 C 9,0 km/h (2 Bft)
27.02.2012 14:09 5,9 C 5,8 C 6,0 C 7,2 C 7,1 C 1,3 C 66 % 69 % 34 % 1025,5 hPa 0,0 l/m 9,2 km/h (2 Bft) N 0 0 min 0,0 UV-I 0,0 C 5,3 C 13,0 km/h (3 Bft)
27.02.2012 14:20 5,9 C 5,8 C 5,9 C 7,1 C 6,3 C 1,2 C 66 % 68 % 32 % 1025,5 hPa 0,0 l/m 9,0 km/h (2 Bft) SW 225 0 min 0,0 UV-I 0,0 C 4,4 C 21,7 km/h (4 Bft)
27.02.2012 14:25 5,9 C 5,8 C 5,9 C 6,3 C 6,3 C 0,4 C 66 % 68 % 11 % 1025,5 hPa 0,0 l/m 8,2 km/h (2 Bft) S-SW 202 0 min 0,0 UV-I 0,0 C 4,6 C 11,7 km/h (2 Bft)
27.02.2012 14:30 5,9 C 5,8 C 6,0 C 6,6 C 6,0 C 0,7 C 66 % 69 % 18 % 1025,5 hPa 0,0 l/m 9,0 km/h (2 Bft) W-SW 247 0 min 0,0 UV-I 0,0 C 4,1 C 14,8 km/h (3 Bft)
27.02.2012 14:35 5,9 C 5,8 C 6,0 C 6,2 C 5,4 C 0,3 C 66 % 68 % 8 % 1024,8 hPa 0,0 l/m 10,3 km/h (2 Bft) SW 225 0 min 0,0 UV-I 0,0 C 3,1 C 7,6 km/h (2 Bft)
27.02.2012 14:40 5,9 C 5,8 C 6,0 C 5,7 C 5,4 C 0,0 C 66 % 69 % 0 % 1024,8 hPa 0,0 l/m 9,8 km/h (2 Bft) W-SW 247 0 min 0,0 UV-I 0,0 C 3,2 C 8,5 km/h (2 Bft)
27.02.2012 14:45 5,9 C 5,8 C 5,8 C 6,1 C 5,7 C 0,2 C 66 % 69 % 5 % 1024,8 hPa 0,0 l/m 8,0 km/h (2 Bft) S-SW 202 0 min 0,0 UV-I 0,0 C 4,0 C 7,7 km/h (2 Bft)
27.02.2012 14:50 5,8 C 5,8 C 5,9 C 6,1 C 5,5 C 0,3 C 67 % 69 % 8 % 1024,8 hPa 0,0 l/m 7,7 km/h (2 Bft) W-SW 247 0 min 0,0 UV-I 0,2 C 3,8 C 12,9 km/h (3 Bft)
27.02.2012 14:55 5,9 C 5,8 C 5,9 C 5,9 C 5,4 C 0,0 C 67 % 70 % 0 % 1024,8 hPa 0,0 l/m 8,0 km/h (2 Bft) W 270 0 min 0,0 UV-I 0,3 C 3,6 C 10,1 km/h (2 Bft)
27.02.2012 15:00 5,9 C 5,8 C 5,8 C 5,7 C 5,4 C 0,0 C 68 % 70 % 0 % 1024,8 hPa 0,0 l/m 8,2 km/h (2 Bft) S-SW 202 0 min 0,0 UV-I 0,5 C 3,6 C 10,0 km/h (2 Bft)
27.02.2012 15:15 5,9 C 5,8 C 5,9 C 5,9 C 5,2 C 0,0 C 68 % 71 % 0 % 1025,2 hPa 0,0 l/m 8,5 km/h (2 Bft) S-SW 202 0 min 0,0 UV-I 0,5 C 3,2 C 10,0 km/h (2 Bft)
27.02.2012 15:18 5,9 C 5,8 C 5,9 C 5,3 C 5,2 C 0,0 C 68 % 71 % 0 % 1025,2 hPa 0,0 l/m 8,5 km/h (2 Bft) S-SW 202 0 min 0,0 UV-I 0,5 C 3,2 C 10,0 km/h (2 Bft)
27.02.2012 15:20 5,8 C 5,8 C 5,8 C 5,9 C 5,4 C 0,1 C 68 % 71 % 3 % 1025,2 hPa 0,0 l/m 8,2 km/h (2 Bft) W 270 0 min 0,0 UV-I 0,4 C 3,6 C 8,9 km/h (2 Bft)
27.02.2012 15:25 5,9 C 5,8 C 5,6 C 5,9 C 5,1 C 0,0 C 68 % 71 % 0 % 1025,2 hPa 0,0 l/m 8,9 km/h (2 Bft) W-SW 247 0 min 0,0 UV-I 0,5 C 3,0 C 14,5 km/h (3 Bft)
27.02.2012 15:30 5,7 C 5,8 C 5,6 C 5,6 C 4,5 C 0,0 C 67 % 70 % 0 % 1025,2 hPa 0,0 l/m 10,5 km/h (2 Bft) SW 225 0 min 0,0 UV-I 0,1 C 2,0 C 14,8 km/h (3 Bft)
27.02.2012 15:35 5,6 C 5,8 C 5,5 C 5,4 C 4,0 C 0,0 C 67 % 71 % 0 % 1025,6 hPa 0,0 l/m 11,6 km/h (2 Bft) W-SW 247 0 min 0,0 UV-I -0,0 C 1,1 C 13,0 km/h (3 Bft)
27.02.2012 15:40 5,6 C 5,8 C 5,5 C 5,3 C 4,1 C 0,0 C 67 % 70 % 0 % 1025,6 hPa 0,0 l/m 11,1 km/h (2 Bft) W-SW 247 0 min 0,0 UV-I -0,0 C 1,3 C 23,8 km/h (4 Bft)
27.02.2012 15:45 5,7 C 5,8 C 5,5 C 5,2 C 4,1 C 0,0 C 66 % 70 % 0 % 1025,6 hPa 0,0 l/m 10,3 km/h (2 Bft) SW 225 0 min 0,0 UV-I -0,1 C 1,5 C 9,7 km/h (2 Bft)
27.02.2012 15:50 5,6 C 5,8 C 5,5 C 5,4 C 4,2 C 0,0 C 66 % 69 % 0 % 1025,6 hPa 0,0 l/m 10,0 km/h (2 Bft) SW 225 0 min 0,0 UV-I -0,2 C 1,7 C 9,7 km/h (2 Bft)
27.02.2012 15:55 5,7 C 5,8 C 5,4 C 5,4 C 4,3 C 0,0 C 66 % 70 % 0 % 1024,8 hPa 0,0 l/m 9,5 km/h (2 Bft) W 270 0 min 0,0 UV-I -0,1 C 1,9 C 10,0 km/h (2 Bft)
27.02.2012 16:00 5,6 C 5,8 C 5,5 C 5,2 C 4,3 C 0,0 C 66 % 69 % 0 % 1024,8 hPa 0,0 l/m 9,7 km/h (2 Bft) W-SW 247 0 min 0,0 UV-I -0,2 C 1,9 C 8,4 km/h (2 Bft)
27.02.2012 16:10 5,5 C 5,9 C 5,3 C 5,1 C 4,3 C 0,0 C 66 % 69 % 0 % 1024,8 hPa 0,0 l/m 8,7 km/h (2 Bft) N 0 0 min 0,0 UV-I -0,3 C 2,1 C 9,3 km/h (2 Bft)
27.02.2012 16:20 5,5 C 5,9 C 5,3 C 5,1 C 4,3 C 0,0 C 66 % 69 % 0 % 1024,7 hPa 0,0 l/m 7,7 km/h (2 Bft) W-SW 247 0 min 0,0 UV-I -0,3 C 2,4 C 7,9 km/h (2 Bft)
27.02.2012 16:25 5,5 C 5,9 C 5,3 C 5,1 C 4,4 C 0,0 C 66 % 70 % 0 % 1024,7 hPa 0,0 l/m 7,4 km/h (2 Bft) W-SW 247 0 min 0,0 UV-I -0,3 C 2,6 C 7,7 km/h (2 Bft)
27.02.2012 16:30 5,5 C 5,9 C 5,2 C 5,3 C 4,2 C 0,0 C 66 % 70 % 0 % 1024,7 hPa 0,0 l/m 7,7 km/h (2 Bft) SO 135 0 min 0,0 UV-I -0,3 C 2,3 C 7,6 km/h (2 Bft)
27.02.2012 16:35 5,5 C 5,9 C 5,3 C 5,2 C 3,9 C 0,0 C 66 % 70 % 0 % 1024,7 hPa 0,0 l/m 8,7 km/h (2 Bft) S-SW 202 0 min 0,0 UV-I -0,3 C 1,7 C 9,0 km/h (2 Bft)
27.02.2012 16:40 5,5 C 5,9 C 5,3 C 5,0 C 3,9 C 0,0 C 67 % 70 % 0 % 1024,7 hPa 0,0 l/m 8,5 km/h (2 Bft) SW 225 0 min 0,0 UV-I -0,1 C 1,7 C 7,6 km/h (2 Bft)
27.02.2012 16:45 5,4 C 6,0 C 5,2 C 5,0 C 4,1 C 0,0 C 67 % 71 % 0 % 1024,7 hPa 0,0 l/m 7,4 km/h (2 Bft) W-SW 247 0 min 0,0 UV-I -0,2 C 2,2 C 7,7 km/h (2 Bft)
27.02.2012 16:50 5,4 C 6,0 C 5,1 C 5,1 C 4,4 C 0,0 C 67 % 71 % 0 % 1024,7 hPa 0,0 l/m 6,4 km/h (2 Bft) W-SW 247 0 min 0,0 UV-I -0,2 C 2,9 C 9,0 km/h (2 Bft)
27.02.2012 16:55 5,3 C 6,0 C 5,1 C 5,1 C 4,7 C 0,0 C 68 % 71 % 0 % 1024,7 hPa 0,0 l/m 5,5 km/h (1 Bft) W-SW 247 0 min 0,0 UV-I -0,1 C 3,6 C 4,8 km/h (1 Bft)
27.02.2012 17:00 5,4 C 6,0 C 5,1 C 5,1 C 4,6 C 0,0 C 68 % 71 % 0 % 1024,7 hPa 0,0 l/m 6,0 km/h (2 Bft) W-SW 247 0 min 0,0 UV-I -0,0 C 3,3 C 9,3 km/h (2 Bft)
27.02.2012 17:10 5,3 C 6,0 C 5,0 C 4,9 C 4,1 C 0,0 C 69 % 72 % 0 % 1024,7 hPa 0,0 l/m 6,4 km/h (2 Bft) N 0 0 min 0,0 UV-I 0,1 C 2,6 C 5,8 km/h (2 Bft)
27.02.2012 17:20 5,2 C 6,1 C 4,9 C 5,0 C 4,7 C 0,0 C 69 % 73 % 0 % 1024,9 hPa 0,0 l/m 4,7 km/h (1 Bft) SW 225 0 min 0,0 UV-I -0,0 C 3,9 C 5,5 km/h (1 Bft)
27.02.2012 17:25 5,3 C 6,1 C 4,9 C 5,0 C 4,3 C 0,0 C 70 % 73 % 0 % 1024,9 hPa 0,0 l/m 5,3 km/h (1 Bft) SW 225 0 min 0,0 UV-I 0,3 C 3,2 C 6,4 km/h (2 Bft)
27.02.2012 17:30 5,2 C 6,1 C 4,8 C 4,9 C 4,2 C 0,0 C 70 % 74 % 0 % 1024,9 hPa 0,0 l/m 5,3 km/h (1 Bft) W-SW 247 0 min 0,0 UV-I 0,2 C 3,1 C 5,3 km/h (1 Bft)
27.02.2012 17:35 5,2 C 6,1 C 4,8 C 4,7 C 3,8 C 0,0 C 70 % 74 % 0 % 1024,9 hPa 0,0 l/m 6,4 km/h (2 Bft) SW 225 0 min 0,0 UV-I 0,2 C 2,2 C 10,8 km/h (2 Bft)
27.02.2012 17:40 5,1 C 6,1 C 4,8 C 4,6 C 3,5 C 0,0 C 71 % 74 % 0 % 1024,9 hPa 0,0 l/m 7,6 km/h (2 Bft) SW 225 0 min 0,0 UV-I 0,3 C 1,5 C 12,6 km/h (3 Bft)
27.02.2012 17:45 5,1 C 6,1 C 4,9 C 4,6 C 3,7 C 0,0 C 71 % 75 % 0 % 1024,9 hPa 0,0 l/m 6,9 km/h (2 Bft) W-SW 247 0 min 0,0 UV-I 0,3 C 1,9 C 9,7 km/h (2 Bft)
27.02.2012 17:50 5,1 C 6,1 C 4,8 C 4,6 C 3,7 C 0,0 C 71 % 75 % 0 % 1024,9 hPa 0,0 l/m 6,4 km/h (2 Bft) W-SW 247 0 min 0,0 UV-I 0,3 C 2,1 C 9,8 km/h (2 Bft)
27.02.2012 17:55 5,0 C 6,1 C 4,6 C 4,6 C 3,7 C 0,0 C 71 % 75 % 0 % 1024,9 hPa 0,0 l/m 6,1 km/h (2 Bft) W-SW 247 0 min 0,0 UV-I 0,2 C 2,2 C 4,5 km/h (1 Bft)
27.02.2012 18:00 5,0 C 6,1 C 4,6 C 4,6 C 3,7 C 0,0 C 72 % 75 % 0 % 1024,9 hPa 0,0 l/m 6,0 km/h (2 Bft) S-SW 202 0 min 0,0 UV-I 0,4 C 2,2 C 4,8 km/h (1 Bft)
27.02.2012 18:15 4,8 C 6,2 C 4,4 C 4,4 C 3,7 C 0,0 C 73 % 77 % 0 % 1024,6 hPa 0,0 l/m 5,1 km/h (1 Bft) W-SW 247 0 min 0,0 UV-I 0,4 C 2,6 C 4,5 km/h (1 Bft)
27.02.2012 18:19 4,7 C 6,2 C 4,4 C 4,4 C 3,8 C 0,0 C 73 % 77 % 0 % 1024,6 hPa 0,0 l/m 5,0 km/h (1 Bft) W-SW 247 0 min 0,0 UV-I 0,3 C 2,7 C 6,4 km/h (2 Bft)
27.02.2012 18:22 4,7 C 6,2 C 4,4 C 4,4 C 3,8 C 0,0 C 73 % 77 % 0 % 1024,6 hPa 0,0 l/m 5,0 km/h (1 Bft) W-SW 247 0 min 0,0 UV-I 0,3 C 2,7 C 6,4 km/h (2 Bft)
27.02.2012 18:25 4,7 C 6,2 C 4,3 C 4,4 C 3,8 C 0,0 C 73 % 77 % 0 % 1024,6 hPa 0,0 l/m 4,5 km/h (1 Bft) W-SW 247 0 min 0,0 UV-I 0,3 C 3,8 C 5,1 km/h (1 Bft)
27.02.2012 18:30 4,7 C 6,2 C 4,3 C 4,5 C 4,1 C 0,0 C 73 % 77 % 0 % 1024,6 hPa 0,0 l/m 4,0 km/h (1 Bft) W-SW 247 0 min 0,0 UV-I 0,3 C 4,1 C 2,4 km/h (1 Bft)
27.02.2012 18:35 4,5 C 6,2 C 4,2 C 4,4 C 4,3 C 0,0 C 73 % 77 % 0 % 1025,1 hPa 0,0 l/m 3,5 km/h (1 Bft) SW 225 0 min 0,0 UV-I 0,1 C 4,3 C 4,7 km/h (1 Bft)
27.02.2012 18:40 4,5 C 6,2 C 4,2 C 4,4 C 4,3 C 0,0 C 74 % 77 % 0 % 1025,1 hPa 0,0 l/m 3,2 km/h (1 Bft) W-SW 247 0 min 0,0 UV-I 0,3 C 4,3 C 2,4 km/h (1 Bft)
27.02.2012 18:45 4,5 C 6,2 C 4,1 C 4,5 C 4,4 C 0,0 C 74 % 78 % 0 % 1025,1 hPa 0,0 l/m 2,9 km/h (1 Bft) W-SW 247 0 min 0,0 UV-I 0,3 C 4,4 C 2,9 km/h (1 Bft)
27.02.2012 18:50 4,4 C 6,2 C 4,1 C 4,4 C 4,3 C 0,0 C 75 % 78 % 0 % 1025,1 hPa 0,0 l/m 2,9 km/h (1 Bft) W-SW 247 0 min 0,0 UV-I 0,4 C 4,3 C 2,9 km/h (1 Bft)
27.02.2012 18:55 4,4 C 6,2 C 4,1 C 4,2 C 3,9 C 0,0 C 75 % 79 % 0 % 1024,9 hPa 0,0 l/m 3,5 km/h (1 Bft) W-SW 247 0 min 0,0 UV-I 0,4 C 3,9 C 4,5 km/h (1 Bft)
27.02.2012 19:00 4,4 C 6,2 C 4,1 C 4,1 C 3,5 C 0,0 C 76 % 79 % 0 % 1024,9 hPa 0,0 l/m 4,0 km/h (1 Bft) W-SW 247 0 min 0,0 UV-I 0,5 C 3,5 C 6,8 km/h (2 Bft)
27.02.2012 19:15 4,3 C 6,3 C 4,1 C 3,7 C 2,6 C 0,0 C 76 % 80 % 0 % 1024,9 hPa 0,0 l/m 6,3 km/h (2 Bft) W-SW 247 0 min 0,0 UV-I 0,5 C 0,9 C 12,4 km/h (3 Bft)
27.02.2012 19:18 4,3 C 6,3 C 4,1 C 3,7 C 2,6 C 0,0 C 76 % 80 % 0 % 1024,9 hPa 0,0 l/m 6,3 km/h (2 Bft) W-SW 247 0 min 0,0 UV-I 0,5 C 0,9 C 12,4 km/h (3 Bft)
27.02.2012 19:20 4,5 C 6,3 C 4,1 C 4,0 C 2,2 C 0,0 C 76 % 80 % 0 % 1024,9 hPa 0,0 l/m 7,9 km/h (2 Bft) W-SW 247 0 min 0,0 UV-I 0,6 C -0,1 C 8,0 km/h (2 Bft)
27.02.2012 19:25 4,5 C 6,3 C 4,1 C 3,9 C 2,1 C 0,0 C 77 % 80 % 0 % 1024,9 hPa 0,0 l/m 8,4 km/h (2 Bft) W-SW 247 0 min 0,0 UV-I 0,8 C -0,4 C 10,6 km/h (2 Bft)
27.02.2012 19:30 4,5 C 6,3 C 4,1 C 3,8 C 2,4 C 0,0 C 77 % 80 % 0 % 1024,9 hPa 0,0 l/m 7,6 km/h (2 Bft) SW 225 0 min 0,0 UV-I 0,8 C 0,2 C 8,2 km/h (2 Bft)
27.02.2012 19:35 4,4 C 6,3 C 4,1 C 3,9 C 1,8 C 0,0 C 78 % 81 % 0 % 1024,6 hPa 0,0 l/m 9,5 km/h (2 Bft) W-SW 247 0 min 0,0 UV-I 0,9 C -1,0 C 14,3 km/h (3 Bft)
27.02.2012 19:42 4,4 C 6,3 C 4,1 C 3,8 C 1,6 C 0,0 C 78 % 81 % 0 % 1024,6 hPa 0,0 l/m 10,6 km/h (2 Bft) SW 225 0 min 0,0 UV-I 0,9 C -1,5 C 7,4 km/h (2 Bft)
27.02.2012 19:44 4,3 C 6,3 C 4,0 C 3,5 C 1,9 C 0,0 C 79 % 82 % 0 % 1024,6 hPa 0,0 l/m 8,7 km/h (2 Bft) SW 225 0 min 0,0 UV-I 1,0 C -0,7 C 9,3 km/h (2 Bft)
27.02.2012 19:49 4,3 C 6,3 C 4,0 C 3,7 C 2,0 C 0,0 C 79 % 83 % 0 % 1024,6 hPa 0,0 l/m 7,7 km/h (2 Bft) W-SW 247 0 min 0,0 UV-I 1,0 C -0,3 C 6,0 km/h (2 Bft)
27.02.2012 19:54 4,3 C 6,3 C 4,1 C 3,7 C 1,9 C 0,0 C 79 % 83 % 0 % 1025,1 hPa 0,0 l/m 8,0 km/h (2 Bft) SW 225 0 min 0,0 UV-I 1,0 C -0,5 C 10,5 km/h (2 Bft)
27.02.2012 19:59 4,2 C 6,4 C 4,0 C 3,4 C 1,9 C 0,0 C 80 % 83 % 0 % 1025,1 hPa 0,0 l/m 8,0 km/h (2 Bft) W-SW 247 0 min 0,0 UV-I 1,1 C -0,5 C 6,6 km/h (2 Bft)
27.02.2012 20:04 4,0 C 6,4 C 3,9 C 3,5 C 1,7 C 0,0 C 80 % 84 % 0 % 1025,1 hPa 0,0 l/m 8,2 km/h (2 Bft) W-SW 247 0 min 0,0 UV-I 0,9 C -0,8 C 7,4 km/h (2 Bft)
27.02.2012 20:09 4,0 C 6,6 C 3,9 C 3,3 C 1,9 C 0,0 C 81 % 84 % 0 % 1025,1 hPa 0,0 l/m 7,1 km/h (2 Bft) W-SW 247 0 min 0,0 UV-I 1,0 C -0,2 C 7,9 km/h (2 Bft)
27.02.2012 20:14 3,9 C 6,6 C 3,6 C 3,2 C 1,8 C 0,0 C 82 % 85 % 0 % 1024,5 hPa 0,0 l/m 6,4 km/h (2 Bft) S 180 0 min 0,0 UV-I 1,1 C -0,1 C 8,2 km/h (2 Bft)
27.02.2012 20:17 3,9 C 6,6 C 3,6 C 3,2 C 1,8 C 0,0 C 82 % 85 % 0 % 1024,5 hPa 0,0 l/m 6,4 km/h (2 Bft) S 180 0 min 0,0 UV-I 1,1 C -0,1 C 8,2 km/h (2 Bft)
27.02.2012 20:20 3,9 C 6,7 C 3,5 C 3,2 C 1,8 C 0,0 C 83 % 85 % 0 % 1024,5 hPa 0,0 l/m 6,3 km/h (2 Bft) SW 225 0 min 0,0 UV-I 1,3 C -0,1 C 7,7 km/h (2 Bft)
27.02.2012 20:25 3,6 C 6,8 C 3,3 C 3,0 C 1,9 C 0,0 C 83 % 87 % 0 % 1024,5 hPa 0,7 l/m 5,3 km/h (1 Bft) SW 225 0 min 0,0 UV-I 1,0 C 0,4 C 3,9 km/h (1 Bft)
27.02.2012 20:30 3,7 C 6,8 C 3,2 C 3,0 C 1,7 C 0,0 C 83 % 88 % 0 % 1024,5 hPa 0,0 l/m 5,8 km/h (2 Bft) W-SW 247 0 min 0,0 UV-I 1,1 C 0,0 C 9,0 km/h (2 Bft)
27.02.2012 20:35 3,6 C 6,8 C 3,1 C 2,9 C 1,4 C 0,0 C 84 % 89 % 0 % 1025,2 hPa 0,0 l/m 6,3 km/h (2 Bft) W 270 0 min 0,0 UV-I 1,2 C -0,5 C 6,4 km/h (2 Bft)
27.02.2012 20:40 3,5 C 6,8 C 3,1 C 2,9 C 1,6 C 0,0 C 84 % 89 % 0 % 1025,2 hPa 0,0 l/m 6,0 km/h (2 Bft) SW 225 0 min 0,0 UV-I 1,1 C -0,2 C 9,7 km/h (2 Bft)
27.02.2012 20:45 3,5 C 6,9 C 3,1 C 3,0 C 1,9 C 0,0 C 85 % 90 % 0 % 1025,2 hPa 0,0 l/m 4,7 km/h (1 Bft) O-SO 112 0 min 0,0 UV-I 1,2 C 0,7 C 2,4 km/h (1 Bft)
27.02.2012 20:49 3,4 C 6,9 C 3,0 C 3,2 C 2,7 C 0,0 C 85 % 90 % 0 % 1025,2 hPa 0,0 l/m 3,1 km/h (1 Bft) W-SW 247 0 min 0,0 UV-I 1,1 C 2,7 C 2,1 km/h (1 Bft)
27.02.2012 20:51 3,4 C 6,9 C 3,0 C 3,2 C 2,7 C 0,0 C 85 % 90 % 0 % 1025,2 hPa 0,0 l/m 3,1 km/h (1 Bft) W-SW 247 0 min 0,0 UV-I 1,1 C 2,7 C 2,1 km/h (1 Bft)
27.02.2012 20:55 3,3 C 6,9 C 2,9 C 3,1 C 2,8 C 0,0 C 85 % 91 % 0 % 1024,9 hPa 0,0 l/m 1,4 km/h (1 Bft) W-SW 247 0 min 0,0 UV-I 1,0 C 2,8 C 3,4 km/h (1 Bft)
27.02.2012 21:00 3,3 C 6,9 C 2,9 C 3,1 C 2,8 C 0,0 C 85 % 91 % 0 % 1024,9 hPa 0,0 l/m 2,3 km/h (1 Bft) SW 225 0 min 0,0 UV-I 1,0 C 2,8 C 5,3 km/h (1 Bft)
27.02.2012 21:10 3,3 C 6,9 C 2,8 C 3,1 C 2,8 C 0,0 C 86 % 91 % 0 % 1024,9 hPa 0,0 l/m 1,4 km/h (1 Bft) N 0 0 min 0,0 UV-I 1,2 C 2,8 C 1,6 km/h (1 Bft)
27.02.2012 21:20 3,2 C 6,9 C 2,9 C 3,1 C 2,8 C 0,0 C 86 % 92 % 0 % 1025,2 hPa 0,0 l/m 1,1 km/h (1 Bft) S-SO 157 0 min 0,0 UV-I 1,1 C 2,8 C 1,6 km/h (1 Bft)
27.02.2012 21:24 3,2 C 6,9 C 2,9 C 3,0 C 2,7 C 0,0 C 86 % 92 % 0 % 1025,2 hPa 0,0 l/m 2,9 km/h (1 Bft) W 270 0 min 0,0 UV-I 1,1 C 2,7 C 6,8 km/h (2 Bft)
27.02.2012 21:29 3,2 C 6,9 C 2,8 C 2,9 C 2,4 C 0,0 C 87 % 92 % 0 % 1025,2 hPa 0,0 l/m 3,4 km/h (1 Bft) O-SO 112 0 min 0,0 UV-I 1,2 C 2,4 C 2,9 km/h (1 Bft)
27.02.2012 21:33 3,2 C 6,9 C 2,8 C 2,9 C 2,4 C 0,0 C 87 % 92 % 0 % 1025,2 hPa 0,0 l/m 3,4 km/h (1 Bft) O-SO 112 0 min 0,0 UV-I 1,2 C 2,4 C 2,9 km/h (1 Bft)
27.02.2012 21:35 3,2 C 6,9 C 2,8 C 3,0 C 2,7 C 0,0 C 86 % 92 % 0 % 1025,2 hPa 0,0 l/m 2,9 km/h (1 Bft) W 270 0 min 0,0 UV-I 1,1 C 2,7 C 4,0 km/h (1 Bft)
27.02.2012 21:40 3,2 C 6,9 C 2,8 C 3,1 C 2,8 C 0,0 C 87 % 92 % 0 % 1025,2 hPa 0,0 l/m 2,6 km/h (1 Bft) SW 225 0 min 0,0 UV-I 1,2 C 2,8 C 8,9 km/h (2 Bft)
27.02.2012 21:45 3,2 C 6,9 C 2,7 C 2,8 C 1,9 C 0,0 C 87 % 92 % 0 % 1025,2 hPa 0,0 l/m 4,0 km/h (1 Bft) O-NO 67 0 min 0,0 UV-I 1,2 C 1,9 C 2,4 km/h (1 Bft)
27.02.2012 21:50 3,2 C 6,9 C 2,7 C 2,8 C 1,9 C 0,0 C 87 % 93 % 0 % 1025,2 hPa 0,0 l/m 4,2 km/h (1 Bft) W-SW 247 0 min 0,0 UV-I 1,2 C 1,9 C 6,4 km/h (2 Bft)
27.02.2012 21:55 3,2 C 6,9 C 2,8 C 2,8 C 2,1 C 0,0 C 87 % 93 % 0 % 1025,2 hPa 0,0 l/m 3,9 km/h (1 Bft) SW 225 0 min 0,0 UV-I 1,2 C 2,1 C 3,2 km/h (1 Bft)
27.02.2012 22:00 3,2 C 6,9 C 2,7 C 2,7 C 1,6 C 0,0 C 87 % 93 % 0 % 1025,2 hPa 0,0 l/m 4,8 km/h (1 Bft) NW 315 0 min 0,0 UV-I 1,2 C 0,3 C 5,3 km/h (1 Bft)
27.02.2012 22:09 3,3 C 6,9 C 2,7 C 2,7 C 1,4 C 0,0 C 87 % 93 % 0 % 1025,2 hPa 0,0 l/m 5,3 km/h (1 Bft) N 0 0 min 0,0 UV-I 1,3 C -0,1 C 5,0 km/h (1 Bft)
27.02.2012 22:10 3,3 C 6,9 C 2,7 C 2,7 C 1,4 C 0,0 C 87 % 93 % 0 % 1025,2 hPa 0,0 l/m 5,3 km/h (1 Bft) N 0 0 min 0,0 UV-I 1,3 C -0,1 C 5,0 km/h (1 Bft)
27.02.2012 22:25 3,2 C 6,9 C 2,7 C 2,5 C 1,0 C 0,0 C 87 % 93 % 0 % 1025,2 hPa 0,0 l/m 6,8 km/h (2 Bft) W-SW 247 0 min 0,0 UV-I 1,2 C -1,2 C 5,6 km/h (1 Bft)
27.02.2012 22:30 3,2 C 6,9 C 2,7 C 2,5 C 1,1 C 0,0 C 87 % 93 % 0 % 1025,2 hPa 0,0 l/m 6,3 km/h (2 Bft) W-SW 247 0 min 0,0 UV-I 1,2 C -0,9 C 9,3 km/h (2 Bft)
27.02.2012 22:35 3,3 C 6,9 C 2,8 C 2,7 C 1,5 C 0,0 C 87 % 93 % 0 % 1024,9 hPa 0,0 l/m 5,1 km/h (1 Bft) SW 225 0 min 0,0 UV-I 1,3 C 0,1 C 6,8 km/h (2 Bft)
27.02.2012 22:40 3,2 C 6,9 C 2,8 C 2,6 C 1,3 C 0,0 C 87 % 93 % 0 % 1024,9 hPa 0,0 l/m 5,6 km/h (1 Bft) SW 225 0 min 0,0 UV-I 1,2 C -0,4 C 7,7 km/h (2 Bft)
27.02.2012 22:45 3,3 C 6,9 C 2,7 C 2,6 C 1,2 C 0,0 C 87 % 93 % 0 % 1024,9 hPa 0,7 l/m 5,8 km/h (2 Bft) W 270 0 min 0,0 UV-I 1,3 C -0,6 C 7,7 km/h (2 Bft)
27.02.2012 22:50 3,2 C 6,9 C 2,7 C 2,6 C 1,4 C 0,0 C 87 % 93 % 0 % 1024,9 hPa 0,0 l/m 5,3 km/h (1 Bft) W-SW 247 0 min 0,0 UV-I 1,2 C -0,1 C 5,1 km/h (1 Bft)
27.02.2012 22:55 3,2 C 6,9 C 2,7 C 2,6 C 1,5 C 0,0 C 88 % 93 % 0 % 1024,0 hPa 0,0 l/m 5,1 km/h (1 Bft) S-SO 157 0 min 0,0 UV-I 1,4 C 0,1 C 8,0 km/h (2 Bft)
27.02.2012 23:00 3,2 C 6,9 C 2,8 C 2,7 C 1,6 C 0,0 C 88 % 93 % 0 % 1024,0 hPa 0,0 l/m 5,0 km/h (1 Bft) N-NW 337 0 min 0,0 UV-I 1,4 C 0,2 C 5,5 km/h (1 Bft)
27.02.2012 23:15 3,2 C 6,9 C 2,7 C 2,7 C 1,6 C 0,0 C 88 % 93 % 0 % 1023,8 hPa 0,0 l/m 5,0 km/h (1 Bft) W-SW 247 0 min 0,0 UV-I 1,4 C 0,2 C 2,6 km/h (1 Bft)
27.02.2012 23:18 3,2 C 6,9 C 2,7 C 2,7 C 1,6 C 0,0 C 88 % 93 % 0 % 1023,8 hPa 0,0 l/m 5,0 km/h (1 Bft) W-SW 247 0 min 0,0 UV-I 1,4 C 0,2 C 2,6 km/h (1 Bft)
27.02.2012 23:25 3,2 C 6,9 C 2,7 C 2,6 C 1,5 C 0,0 C 89 % 93 % 0 % 1023,8 hPa 0,0 l/m 5,1 km/h (1 Bft) W-SW 247 0 min 0,0 UV-I 1,6 C 0,1 C 6,4 km/h (2 Bft)
27.02.2012 23:30 3,1 C 6,9 C 2,7 C 2,6 C 1,6 C 0,0 C 89 % 93 % 0 % 1023,8 hPa 0,0 l/m 4,8 km/h (1 Bft) S 180 0 min 0,0 UV-I 1,5 C 0,3 C 7,7 km/h (2 Bft)
27.02.2012 23:35 3,2 C 6,9 C 2,8 C 2,8 C 2,0 C 0,0 C 89 % 93 % 0 % 1024,6 hPa 0,0 l/m 4,0 km/h (1 Bft) O-NO 67 0 min 0,0 UV-I 1,6 C 2,0 C 4,5 km/h (1 Bft)
27.02.2012 23:40 3,2 C 6,9 C 2,8 C 2,8 C 2,1 C 0,0 C 89 % 93 % 0 % 1024,6 hPa 0,0 l/m 3,9 km/h (1 Bft) S 180 0 min 0,0 UV-I 1,6 C 2,1 C 8,0 km/h (2 Bft)
27.02.2012 23:45 3,2 C 6,9 C 2,8 C 3,1 C 2,9 C 0,0 C 89 % 93 % 0 % 1024,6 hPa 0,0 l/m 2,4 km/h (1 Bft) SW 225 0 min 0,0 UV-I 1,6 C 2,9 C 2,1 km/h (1 Bft)
27.02.2012 23:50 3,2 C 6,9 C 2,8 C 3,1 C 2,9 C 0,0 C 89 % 93 % 0 % 1024,6 hPa 0,0 l/m 2,1 km/h (1 Bft) NW 315 0 min 0,0 UV-I 1,6 C 2,9 C 4,2 km/h (1 Bft)
27.02.2012 23:55 3,2 C 6,9 C 2,9 C 3,1 C 2,9 C 0,0 C 89 % 93 % 0 % 1024,6 hPa 0,0 l/m 2,1 km/h (1 Bft) S-SO 157 0 min 0,0 UV-I 1,6 C 2,9 C 3,4 km/h (1 Bft)
_ Min-Zeit 06:10 10:50 05:25 06:10 06:10 00:00 14:09 14:20 00:00 23:15 - 00:00 - - - 00:00 04:14 06:10 00:00
Minimum _ -4,3 C 5,8 C -3,6 C -4,7 C -5,5 C 0,0 C 66 % 68 % 0 % 1023,8 hPa - 0,0 km/h (0 Bft) - - - 0,0 UV-I -6,0 C -5,5 C 0,0 km/h (0 Bft)
_ Max-Zeit 14:09 20:45 14:09 12:20 14:09 12:00 08:15 21:50 12:00 00:00 20:25 15:35 - - 00:00 00:00 23:25 13:45 15:40
Maximum _ 5,9 C 6,9 C 6,0 C 7,2 C 7,1 C 2,9 C 91 % 93 % 76 % 1028,2 hPa 0,7 l/m 11,6 km/h
W-SW (2 Bft)
- - 0 min 0,0 UV-I 1,6 C 5,9 C 23,8 km/h
W-SW (4 Bft)
Durchschnitt _ 1,2 C 6,2 C 1,3 C 1,2 C 0,5 C 0,3 C 81 % 84 % 8 % 1026,4 hPa #1,4 l/m 3,9 km/h (1 Bft) W-SW - #0 min. 0,0 UV-I -1,7 C -0,3 C 5,0 km/h (1 Bft)
2012 www.wetterstation-wechselburg.de